Regional Weather Roundup
Issued by NWS

Home | Current Version | Previous Version | Graphics & Text | Print | Product List | Glossary On
Versions: 1 2 3 4 5 6 7 8 9 10 11 12 13 14 15 16 17 18 19 20 21 22 23 24 25 26 27 28 29 30 31 32 33 34 35 36 37 38 39 40 41 42 43 44 45 46 47 48 49 50
000
ASUS43 KIND 091659
RWRIN

WEATHER ROUNDUP FOR INDIANA
NATIONAL WEATHER SERVICE INDIANAPOLIS IN
1200 PM EST FRI DEC 09 2016

NOTE: "FAIR" INDICATES FEW OR NO CLOUDS BELOW 12,000 FEET WITH NO
SIGNIFICANT WEATHER AND/OR OBSTRUCTIONS TO VISIBILITY.

* - STATION DOES NOT REPORT WEATHER SUCH AS PRECIPITATION OR FOG.

+ - STATION NOT QUALITY CONTROLLED BY THE NATIONAL WEATHER SERVICE.
    USE DATA WITH CAUTION...ESPECIALLY DEWPOINT AND RELATIVE
    HUMIDITY OBSERVATIONS.

INZ001>003-010>013-019-020-091800-
NORTHWEST INDIANA

CITY           SKY/WX    TMP DP  RH WIND       PRES   REMARKS
GARY /AIRPORT/ CLOUDY    27  16  63 W13       30.54F WCI  16
MONTICELLO +   CLOUDY    26  15  63 W14       30.53F WCI  15
RENSSELAER +     N/A     28  21  74 W12       30.53F WCI  18

$$

LMZ046-743>745-091800-
SOUTHERN LAKE MICHIGAN

STATION/POSITION TIME  TEMP    WIND        PRES    WAVE
                       AIR SEA DIR/SP/G            HT
                 (UTC) (F)     (DEG/KT/KT) (MB)    (FT)

$$

INZ004-005-014>016-021>024-091800-
NORTH CENTRAL INDIANA

CITY           SKY/WX    TMP DP  RH WIND       PRES   REMARKS
ELKHART        FLURRIES  28  21  74 W17G23    30.46S WCI  16
GOSHEN         CLOUDY    28  20  71 W17       30.46S WCI  16
SOUTH BEND     LGT SNOW  25  20  81 W17       30.48F WCI  12

$$

INZ006>009-017-018-025>027-091800-
NORTHEAST INDIANA

CITY           SKY/WX    TMP DP  RH WIND       PRES   REMARKS
ANGOLA *+      CLOUDY    27  21  80 W10       30.42S WCI  17
FORT WAYNE     FLURRIES  28  20  71 W15       30.48S WCI  16
KENDALLVILLE + CLOUDY    27  21  80 W9G21     30.45R WCI  17

$$

INZ028-029-035-036-043>045-051>053-091800-
WEST CENTRAL INDIANA

CITY           SKY/WX    TMP DP  RH WIND       PRES   REMARKS
CRAWFORDSVL +  CLOUDY    24  18  78 W8        30.55F WCI  15
GREENCASTLE +  MOSUNNY   27  18  69 SW6       30.55F WCI  20
LAFAYETTE      FLURRIES  26  19  74 W10       30.55F WCI  16
TERRE HAUTE    CLOUDY    26  11  52 W5        30.59F WCI  20

$$

INZ030>032-037>040-046>048-054>057-064-065-091800-
CENTRAL INDIANA

CITY           SKY/WX    TMP DP  RH WIND       PRES   REMARKS
GREENWOOD *+   CLOUDY    26  17  68 W9        30.55F WCI  17
INDIANAPOLIS   PTSUNNY   27  16  63 W9        30.54F WCI  18
-EAGLE CREEK   MOSUNNY   26  17  68 NW13      30.54S WCI  15
KOKOMO +       CLOUDY    25  20  81 W16       30.52F WCI  12
SHELBYVILLE    PTSUNNY   26  14  60 W12       30.54F WCI  16

$$

INZ033-034-041-042-049-050-058-059-091800-
EAST CENTRAL INDIANA

CITY           SKY/WX    TMP DP  RH WIND       PRES   REMARKS
MUNCIE         CLOUDY    24  18  77 W10       30.51F WCI  14

$$

INZ060-061-067>069-081>083-085>088-091800-
SOUTHWEST INDIANA

CITY           SKY/WX    TMP DP  RH WIND       PRES   REMARKS
EVANSVILLE     PTSUNNY   29  13  51 W7        30.63F WCI  22
HUNTINGBURG *+ CLOUDY    25  14  63 NW7       30.62S WCI  17

$$

INZ062-063-066-070>080-084-089>092-091800-
SOUTH CENTRAL AND SOUTHEAST INDIANA

CITY           SKY/WX    TMP DP  RH WIND       PRES   REMARKS
BLOOMINGTON    FLURRIES  23  14  68 W7        30.56F WCI  15
MADISON *+     CLOUDY    25  12  58 W8        30.60S WCI  16

$$





USA.gov is the U.S. government's official web portal to all federal, state and local government web resources and services.